Flag for France Weather past 2 weeks in Dijon, France

Now
63 °F

Low clouds.


Feels Like: 63 °F
Forecast: 52 / 68 °F
Wind: 3 mph from South

Location: Dijon Airport

Current Time: May 4, 2015 at 10:16:10 AM

Latest Report: May 4, 2015 at 9:30 AM


Visibility: N/A

Pressure: 29.86 "Hg

Humidity: 94%

Dew point: 61 °F

Location of DijonLocation

Historic Weather in Dijon — Graph

°F

Dijon temperature yesterday

Maximum temperature yesterday: 70 °F (at 3:30 PM)
Minimum temperature yesterday: 54 °F (at 12:00 AM)
Average temperature yesterday: 61 °F

Past Weeks' High & Low Weather Summary

 TemperatureHumidityPressure
High75 °F (Apr 22, 3:00 PM)100% (Apr 26, 12:30 AM)30.33 "Hg (Apr 26, 12:30 AM)
Low36 °F (Apr 29, 3:00 AM)21% (Apr 22, 4:30 PM)29.56 "Hg (Apr 27, 6:00 AM)
Average56 °F70%29.95 "Hg
* Reported Apr 19 9:00 AM — May 4 9:00 AM, Dijon, Weather by CustomWeather, © 2015

Note: Actual official high and low records may vary slightly from our data, if they occured in-between our weather recording intervals... More about our weather records

Advertising

Dijon weather history for previous 24 hours

 ConditionsComfort  
Time TempWeatherWind HumidityBarometerVisibility
9:00 AM
Mon, May 4
61 °FLow clouds.3 mph94%29.86 "Hg4 mi
8:30 AM59 °FMostly cloudy.2 mph100%29.86 "Hg5 mi
8:00 AM59 °FMore clouds than sun.2 mph94%29.86 "Hg5 mi
7:30 AM57 °FMostly cloudy.No wind94%29.86 "Hg4 mi
7:00 AM57 °FFog.2 mph94%29.83 "Hg1 mi
6:30 AM55 °FFog.1 mph100%29.83 "Hg1 mi
6:00 AM57 °FFog.2 mph100%29.83 "Hg3 mi
5:30 AM57 °FClear.3 mph100%29.86 "Hg5 mi
5:00 AM57 °FCool.3 mph100%29.86 "HgN/A
4:30 AM59 °FClear.5 mph94%29.86 "HgN/A
4:00 AM59 °FClear.3 mph94%29.86 "HgN/A
3:30 AM59 °FClear.3 mph94%29.86 "HgN/A
3:00 AM59 °FClear.3 mph94%29.86 "HgN/A
2:30 AM59 °FClear.5 mph94%29.86 "HgN/A
2:00 AM59 °FClear.5 mph94%29.86 "HgN/A
1:30 AM59 °FClear.6 mph94%29.86 "HgN/A
1:00 AM59 °FClear.6 mph94%29.86 "HgN/A
12:30 AM59 °FClear.6 mph94%29.83 "HgN/A
12:00 AM59 °FClear.5 mph94%29.83 "HgN/A
11:30 PM
Sun, May 3
61 °FClear.5 mph83%29.83 "HgN/A
11:00 PM61 °FClear.8 mph88%29.83 "HgN/A
10:30 PM61 °FClear.5 mph88%29.83 "HgN/A
10:00 PM63 °FClear.3 mph83%29.83 "HgN/A
9:30 PM61 °FClear.3 mph88%29.83 "HgN/A
9:00 PM63 °FClear.6 mph88%29.80 "HgN/A
8:30 PM64 °FClear.5 mph83%29.80 "HgN/A
8:00 PM64 °FClear.7 mph83%29.77 "HgN/A
7:30 PM66 °FClear.8 mph78%29.77 "HgN/A
7:00 PM66 °FOvercast.10 mph78%29.77 "HgN/A
6:30 PM66 °FLight rain. Partly sunny.14 mph78%29.74 "Hg5 mi
6:00 PM70 °FBroken clouds.9 mph83%29.74 "HgN/A
5:30 PM70 °FPartly sunny.10 mph78%29.71 "HgN/A
5:00 PM70 °FOvercast.8 mph78%29.74 "HgN/A
4:30 PM70 °FMostly cloudy.9 mph78%29.74 "HgN/A
4:00 PM68 °FPartly sunny.12 mph73%29.74 "HgN/A
3:30 PM70 °FMore clouds than sun.13 mph83%29.74 "HgN/A
3:00 PM68 °FPartly sunny.9 mph83%29.74 "HgN/A
2:30 PM68 °FBroken clouds.10 mph83%29.74 "HgN/A
2:00 PM64 °FMostly cloudy.10 mph88%29.74 "HgN/A
1:30 PM63 °FLow clouds.12 mph94%29.74 "HgN/A
1:00 PM61 °FLow clouds.10 mph94%29.74 "HgN/A
12:30 PM61 °FLow clouds.12 mph94%29.74 "HgN/A
12:00 PM61 °FLight rain. Low clouds.9 mph94%29.74 "HgN/A
11:30 AM61 °FLight rain. Partly sunny.7 mph94%29.77 "HgN/A
11:00 AM61 °FLight rain. Low clouds.7 mph94%29.77 "Hg6 mi
10:30 AM59 °FRain. Fog.5 mph100%29.77 "Hg3 mi
10:00 AM59 °FRain. Mostly cloudy.3 mph100%29.77 "Hg4 mi
Weather by CustomWeather, © 2015

See weather overviewHow to use our weather pages